Marion, IN

2:59 PM EST on February 13, 2016 (GMT -0500)
Marion Municipal

Weather History for KMZZ - June, 2013

Change the Weather History Date:

Monday, June 24, 2013

  Actual Average (KMIE) Record (KMIE)
Temperature  
Mean Temperature 76 °F 74 °F  
Max Temperature 85 °F 84 °F 94 °F (1968)
Min Temperature 67 °F 64 °F 46 °F (1974)
Degree Days  
Heating Degree Days 0 0  
Month to date heating degree days 21  
Since 1 June heating degree days 21  
Since 1 July heating degree days 5780  
Cooling Degree Days 11 9  
Month to date cooling degree days 159  
Year to date cooling degree days 242  
Since 1 June cooling degree days 159  
Growing Degree Days 26 (Base 50)    
Moisture  
Dew Point 65 °F    
Average Humidity 71    
Maximum Humidity 92    
Minimum Humidity 48    
Precipitation  
Precipitation 0.00 in 0.15 in 1.19 in (1968)
Month to date precipitation 3.73  
Year to date precipitation 19.30  
Sea Level Pressure  
Sea Level Pressure 30.07 in    
Wind  
Wind Speed 8 mph (SW)    
Max Wind Speed 30 mph    
Max Gust Speed 36 mph    
Visibility 7 miles    
Events      
T = Trace of Precipitation, MM = Missing Value Source: NWS Daily Summary

Daily Weather History Graph

Daily Weather History Graph

Search for Another Location

Airport or City:

Trip Planner

Search our weather history database for the weather conditions in past years. The results will help you decide how hot, cold, wet, or windy it might be!

Date:

Astronomy

Jun. 24, 2013 Rise Set
Actual Time 6:13 AM EDT 9:17 PM EDT
Civil Twilight 5:40 AM EDT 9:50 PM EDT
Nautical Twilight 4:57 AM EDT 10:32 PM EDT
Astronomical Twilight 4:07 AM EDT 11:22 PM EDT
Moon 10:18 PM EDT (6/24) 7:40 AM EDT (6/24)
Length of Visible Light 16h 10m
Length of Day
15h 03m
Full, 98% of the Moon is Illuminated
Jun 24
Full
Jun 30
Last Quarter
Jul 8
New
Jul 15
First Quarter
Jul 22
Full

Hourly Weather History & Observations

Time (EDT) Temp. Heat Index Dew Point Humidity Pressure Visibility Wind Dir Wind Speed Gust Speed Precip Events Conditions
12:15 AM 68.9 °F - 65.1 °F 88% 30.10 in 10.0 mi South 6.9 mph - N/A   Clear
12:35 AM 69.1 °F - 65.3 °F 88% 30.09 in 7.0 mi South 6.9 mph - N/A   Clear
12:55 AM 68.9 °F - 65.5 °F 89% 30.09 in 7.0 mi South 4.6 mph - N/A   Clear
1:55 AM 67.6 °F - 65.1 °F 92% 30.10 in 5.0 mi South 3.5 mph - N/A   Clear
2:15 AM 67.6 °F - 65.3 °F 92% 30.10 in 5.0 mi South 5.8 mph - N/A   Clear
2:35 AM 68.0 °F - 65.5 °F 92% 30.09 in 5.0 mi South 5.8 mph - N/A   Clear
2:55 AM 68.0 °F - 65.7 °F 92% 30.09 in 7.0 mi South 5.8 mph - N/A   Clear
3:15 AM 68.4 °F - 66.0 °F 92% 30.09 in 5.0 mi South 5.8 mph - N/A   Clear
3:35 AM 68.7 °F - 66.2 °F 92% 30.09 in 5.0 mi South 6.9 mph - N/A   Clear
3:55 AM 68.5 °F - 66.0 °F 92% 30.09 in 5.0 mi South 4.6 mph - N/A   Clear
4:15 AM 68.4 °F - 65.8 °F 92% 30.08 in 5.0 mi South 4.6 mph - N/A   Mostly Cloudy
4:35 AM 68.4 °F - 66.0 °F 92% 30.08 in 5.0 mi South 3.5 mph - N/A   Scattered Clouds
4:55 AM 68.4 °F - 65.8 °F 92% 30.08 in 5.0 mi South 4.6 mph - N/A   Scattered Clouds
5:15 AM 68.4 °F - 66.0 °F 92% 30.08 in 5.0 mi South 6.9 mph - N/A   Mostly Cloudy
5:35 AM 68.5 °F - 66.2 °F 92% 30.08 in 5.0 mi SSW 4.6 mph - N/A   Overcast
5:55 AM 68.5 °F - 65.8 °F 91% 30.08 in 4.0 mi SSE 4.6 mph - N/A   Overcast
6:15 AM 68.0 °F - 65.5 °F 92% 30.08 in 4.0 mi South 5.8 mph - N/A   Scattered Clouds
6:35 AM 68.0 °F - 65.3 °F 91% 30.08 in 4.0 mi SSE 5.8 mph - N/A   Clear
6:55 AM 68.0 °F - 65.3 °F 91% 30.08 in 4.0 mi South 5.8 mph - N/A   Clear
7:15 AM 68.5 °F - 65.3 °F 89% 30.09 in 4.0 mi South 6.9 mph - N/A   Clear
7:35 AM 69.3 °F - 65.5 °F 88% 30.10 in 5.0 mi South 5.8 mph - N/A   Clear
7:55 AM 70.3 °F - 65.7 °F 85% 30.11 in 5.0 mi SW 6.9 mph - N/A   Haze
8:15 AM 71.2 °F - 66.0 °F 84% 30.11 in 7.0 mi SSW 9.2 mph - N/A   Clear
8:35 AM 72.0 °F - 66.0 °F 81% 30.12 in 7.0 mi SW 9.2 mph - N/A   Scattered Clouds
8:55 AM 72.9 °F - 66.4 °F 80% 30.12 in 7.0 mi SW 8.1 mph - N/A   Overcast
9:15 AM 73.8 °F - 66.7 °F 79% 30.13 in 7.0 mi SW 12.7 mph 16.1 mph N/A   Mostly Cloudy
9:35 AM 74.1 °F - 66.9 °F 78% 30.13 in 5.0 mi WSW 11.5 mph - N/A   Haze
9:55 AM 74.8 °F - 66.4 °F 75% 30.13 in 7.0 mi WSW 10.4 mph 17.3 mph N/A   Scattered Clouds
10:15 AM 75.4 °F - 65.1 °F 70% 30.14 in 7.0 mi West 13.8 mph - N/A   Scattered Clouds
10:35 AM 75.9 °F - 64.4 °F 67% 30.14 in 10.0 mi West 11.5 mph 18.4 mph N/A   Scattered Clouds
10:55 AM 76.5 °F - 64.6 °F 67% 30.14 in 7.0 mi West 11.5 mph - N/A   Clear
11:15 AM 76.8 °F - 64.4 °F 65% 30.14 in 10.0 mi West 9.2 mph - N/A   Clear
11:35 AM 76.6 °F - 63.7 °F 64% 30.14 in 10.0 mi West 9.2 mph - N/A   Clear
11:55 AM 77.5 °F - 64.2 °F 63% 30.14 in 10.0 mi West 6.9 mph - N/A   Clear
12:15 PM 78.3 °F - 63.7 °F 61% 30.14 in 10.0 mi WNW 5.8 mph - N/A   Scattered Clouds
12:35 PM 77.9 °F - 62.8 °F 60% 30.13 in 7.0 mi West 6.9 mph - N/A   Clear
12:55 PM 78.8 °F - 63.0 °F 58% 30.13 in 10.0 mi WNW 6.9 mph - N/A   Clear
1:15 PM 79.9 °F - 62.8 °F 56% 30.12 in 10.0 mi WNW 4.6 mph - N/A   Clear
1:35 PM 80.1 °F 81.5 °F 63.0 °F 56% 30.10 in 10.0 mi SSW 3.5 mph - N/A   Clear
1:55 PM 80.4 °F 81.7 °F 63.1 °F 55% 30.09 in 7.0 mi SW 3.5 mph - N/A   Scattered Clouds
2:15 PM 81.3 °F 82.6 °F 63.3 °F 54% 30.08 in 10.0 mi SSW 8.1 mph - N/A   Clear
2:35 PM 82.4 °F 83.2 °F 62.1 °F 50% 30.07 in 10.0 mi SW 6.9 mph - N/A   Clear
2:55 PM 82.4 °F 83.2 °F 62.1 °F 50% 30.06 in 7.0 mi SSW 6.9 mph - N/A   Clear
3:15 PM 82.0 °F 83.1 °F 62.6 °F 52% 30.06 in 7.0 mi SSW 9.2 mph - N/A   Clear
3:35 PM 82.4 °F 83.4 °F 62.8 °F 51% 30.05 in 10.0 mi South 9.2 mph - N/A   Clear
3:55 PM 83.1 °F 83.9 °F 62.4 °F 49% 30.05 in 10.0 mi SSW 6.9 mph - N/A   Clear
4:15 PM 83.3 °F 84.6 °F 63.9 °F 52% 30.05 in 10.0 mi SSW 12.7 mph - N/A   Clear
4:35 PM 83.7 °F 84.9 °F 63.9 °F 51% 30.04 in 7.0 mi SW 9.2 mph - N/A   Clear
4:55 PM 84.2 °F 85.4 °F 63.9 °F 50% 30.03 in 7.0 mi South 13.8 mph - N/A   Clear
5:15 PM 84.4 °F 85.4 °F 63.3 °F 49% 30.02 in 7.0 mi SW 12.7 mph - N/A   Clear
5:35 PM 84.6 °F 85.4 °F 62.8 °F 48% 30.01 in 10.0 mi SSW 15.0 mph - N/A   Clear
5:55 PM 84.9 °F 86.1 °F 63.7 °F 49% 30.01 in 7.0 mi SSW 9.2 mph - N/A   Clear
6:15 PM 85.1 °F 86.6 °F 64.4 °F 50% 30.01 in 7.0 mi SW 11.5 mph - N/A   Clear
6:35 PM 85.3 °F 86.8 °F 64.6 °F 50% 30.02 in 7.0 mi WSW 10.4 mph 16.1 mph N/A   Clear
6:55 PM 84.9 °F 86.3 °F 64.6 °F 50% 30.02 in 7.0 mi SSW 11.5 mph - N/A   Clear
7:15 PM 84.2 °F 86.1 °F 65.3 °F 53% 30.03 in 7.0 mi WSW 11.5 mph - N/A   Clear
7:35 PM 84.2 °F 86.3 °F 66.0 °F 54% 30.03 in 7.0 mi WSW 12.7 mph - N/A   Clear
7:55 PM 83.3 °F 85.3 °F 65.8 °F 55% 30.03 in 7.0 mi WSW 10.4 mph 17.3 mph N/A   Scattered Clouds
8:15 PM 82.8 °F 84.7 °F 65.8 °F 56% 30.02 in 7.0 mi WSW 10.4 mph - N/A   Scattered Clouds
8:35 PM 81.9 °F 83.9 °F 65.8 °F 58% 30.01 in 10.0 mi SW 13.8 mph - N/A   Scattered Clouds
8:55 PM 81.0 °F 82.9 °F 65.5 °F 59% 30.01 in 10.0 mi SW 12.7 mph - N/A   Clear
9:15 PM 80.2 °F 82.3 °F 66.2 °F 62% 30.03 in 7.0 mi SW 11.5 mph - N/A   Clear
9:35 PM 79.5 °F - 67.6 °F 67% 30.04 in 7.0 mi WSW 12.7 mph - N/A   Clear
9:55 PM 78.4 °F - 68.9 °F 72% 30.06 in 10.0 mi WSW 11.5 mph - N/A   Clear
10:15 PM 77.4 °F - 67.3 °F 71% 30.09 in 10.0 mi WNW 29.9 mph 35.7 mph N/A   Mostly Cloudy
10:35 PM 71.6 °F - 62.1 °F 72% 30.04 in 10.0 mi SW 4.6 mph - N/A   Overcast
10:55 PM 68.9 °F - 62.8 °F 81% 30.02 in 10.0 mi NE 8.1 mph - N/A   Scattered Clouds
11:15 PM 68.9 °F - 62.8 °F 81% 30.00 in 10.0 mi SSE 9.2 mph - N/A   Mostly Cloudy
11:35 PM 68.7 °F - 62.2 °F 80% 30.01 in 10.0 mi SE 9.2 mph - N/A   Scattered Clouds
11:55 PM 68.7 °F - 62.1 °F 79% 30.01 in 10.0 mi South 8.1 mph - N/A   Clear